Probability
0 0 0 0 0 0 0 0 0 0 0 0 0 0 0 0 0 0 0 0 0 0 3 3 3 3 3 3 0 0 0 0 0 3 3 3 3 0 0 0 0 0 0
0 0 0 0 0 0 0 0 0 0 0 0 0 0 0 0 0 0 0 0 0 0 0 0 3 3 3 3 3 0 0 0 0 0 0 0 0 0 0 0 0 0 3
0 0 0 0 0 0 0 0 0 0 0 0 0 0 0 0 0 0 0 0 0 0 0 0 3 3 3 3 3 3 0 0 0 0 0 0 0 0 0 0 0 0 0
0 0 0 0 0 0 0 0 0 0 0 0 0 0 0 0 0 0 0 0 0 0 0 0 0 0 0 3 3 3 0 0 0 0 0 0 0 0 0 0 0 0 0
0 0 0 0 0 0 0 0 0 0 0 0 0 0 0 0 0 0 0 0 0 0 0 0 0 0 0 0 0 3 3 0 0 0 0 0 0 0 0 0 0 0 0
0 0 0 0 0 0 0 0 0 0 0 0 0 0 0 0 0 0 0 0 0 0 0 0 0 0 0 0 0 0 3 0 0 0 0 0 0 0 0 0 0 0 0
0 0 0 0 0 0 0 0 0 0 0 0 0 0 0 0 0 0 0 0 0 0 0 0 0 0 0 0 0 0 0 0 0 0 0 0 0 0 0 0 0 0 0
0 0 0 0 0 0 0 0 0 0 0 0 0 0 0 0 0 0 0 0 0 0 0 0 0 0 0 0 0 0 0 3 0 0 0 0 0 0 0 0 0 0 0
0 0 0 0 0 0 0 0 0 0 0 0 0 0 0 0 0 0 0 0 0 0 0 0 0 0 0 0 0 0 0 0 0 0 0 0 0 0 0 0 0 0 0
0 0 0 0 0 0 0 0 0 0 0 0 0 0 0 0 0 0 0 0 0 0 0 0 0 0 0 0 0 0 0 0 0 0 0 0 0 0 0 0 0 0 0
0 0 0 0 0 0 0 0 0 0 0 0 0 0 0 0 0 0 0 0 0 0 0 0 0 0 0 0 0 0 0 0 0 0 0 0 0 0 0 0 0 0 0
0 0 0 0 0 0 0 0 0 0 0 0 0 0 0 0 0 0 0 0 0 0 0 0 0 0 0 0 0 0 0 0 0 0 0 0 0 0 0 0 0 0 0
0 0 0 0 0 0 0 0 0 0 0 0 0 0 0 0 0 0 0 0 0 0 0 0 0 0 0 0 0 0 0 0 0 0 0 0 0 0 0 0 0 0 0
0 0 0 0 0 0 0 0 0 0 0 0 0 0 0 0 0 0 0 0 0 0 0 0 0 0 0 0 0 0 0 0 0 0 0 0 0 0 0 0 0 0 0
0 0 0 0 0 0 0 0 0 0 0 0 0 0 0 0 0 0 0 0 0 0 0 0 0 0 0 0 0 0 0 0 0 0 0 0 0 0 0 0 0 0 0
0 0 0 0 0 0 0 0 0 0 0 0 0 0 0 0 0 0 0 0 0 0 0 0 0 0 0 0 0 0 0 0 0 0 0 0 0 0 0 0 0 0 0
0 0 0 0 0 0 0 0 0 0 0 0 0 0 0 0 0 0 0 0 0 0 0 0 0 0 0 0 0 0 0 0 0 0 0 0 0 0 0 0 0 0 0
0 0 0 0 0 0 0 0 0 0 0 0 0 0 0 0 0 0 0 0 0 0 0 0 0 0 0 0 0 0 0 0 0 0 0 0 0 0 0 0 0 0 0
0 0 0 0 0 0 0 0 0 0 0 0 0 0 0 0 0 0 0 0 0 0 0 0 0 0 0 0 0 0 0 0 0 0 0 0 0 0 0 0 0 0 0
0 0 0 0 0 0 0 0 0 0 0 0 0 0 0 0 0 0 0 0 0 0 0 0 0 0 0 0 0 0 0 0 0 0 0 0 0 0 0 0 0 0 0
0 0 0 0 0 0 0 0 0 0 0 0 0 0 0 0 0 0 0 0 0 0 0 0 0 0 0 0 0 0 0 0 0 0 0 0 0 0 0 0 0 0 0
0 0 0 0 0 0 0 0 0 0 0 0 0 0 0 0 0 0 0 0 0 0 0 0 0 0 0 0 0 0 0 0 0 0 0 0 0 0 0 0 0 0 0
0 0 0 0 0 0 0 0 0 0 0 0 0 0 0 0 0 0 0 0 0 0 0 0 0 0 0 0 0 0 0 0 0 0 0 0 0 0 0 0 0 0 0
0 0 0 0 0 0 0 0 0 0 0 0 0 0 0 0 0 0 0 0 0 0 0 0 0 0 0 0 0 0 0 0 0 0 0 0 0 0 0 0 0 0 0
0 0 0 0 0 0 0 0 0 0 0 0 0 0 0 0 0 0 0 0 0 0 0 0 0 0 0 0 0 0 0 0 0 0 0 0 0 0 0 0 0 0 0
0 0 0 0 0 0 0 0 0 0 0 0 0 0 0 0 0 0 0 0 0 0 0 0 0 0 0 0 0 0 0 0 0 0 0 0 0 0 0 0 0 0 0
Height
5793 5796 5799 5801 5804 5806 5808 5809 5811 5813 5814 5815 5816 5818 5819 5820 5820 5821 5821 5821 5821 5821 5822 5821 5821 5821 5820 5820 5819 5818 5817 5816 5815 5815 5814 5813 5812 5811 5810 5809 5808 5807 5806
5785 5787 5791 5793 5796 5798 5800 5802 5804 5806 5807 5809 5810 5811 5812 5813 5814 5814 5815 5815 5815 5815 5815 5815 5814 5814 5814 5813 5812 5812 5811 5810 5809 5808 5807 5806 5805 5804 5803 5802 5801 5801 5800
5775 5778 5782 5785 5788 5790 5792 5794 5796 5798 5800 5802 5803 5804 5806 5806 5807 5807 5808 5808 5808 5808 5808 5808 5807 5807 5807 5806 5805 5804 5804 5803 5802 5801 5800 5799 5798 5797 5796 5795 5794 5793 5792
5766 5769 5773 5776 5779 5782 5785 5787 5789 5791 5793 5794 5796 5797 5798 5799 5800 5800 5800 5801 5801 5801 5801 5800 5800 5800 5800 5799 5798 5797 5796 5795 5794 5793 5792 5791 5790 5789 5788 5787 5786 5785 5784
5756 5760 5763 5766 5770 5773 5776 5779 5781 5783 5785 5787 5788 5790 5791 5792 5792 5792 5793 5793 5793 5793 5793 5793 5793 5792 5792 5791 5791 5790 5789 5787 5786 5785 5784 5783 5782 5781 5779 5778 5777 5776 5775
5747 5751 5754 5757 5761 5765 5768 5770 5773 5775 5777 5778 5780 5781 5782 5783 5784 5784 5784 5785 5785 5785 5785 5785 5784 5784 5783 5783 5782 5781 5780 5779 5778 5777 5775 5774 5773 5772 5770 5769 5768 5766 5765
5738 5741 5745 5748 5752 5756 5758 5762 5764 5766 5768 5769 5771 5773 5774 5774 5775 5776 5776 5776 5776 5776 5776 5776 5775 5775 5774 5774 5773 5772 5771 5770 5769 5767 5766 5765 5763 5762 5761 5759 5758 5756 5755
5729 5732 5735 5739 5743 5746 5749 5752 5755 5757 5758 5760 5762 5763 5764 5766 5766 5767 5767 5767 5767 5766 5766 5766 5766 5765 5765 5764 5763 5762 5761 5760 5759 5757 5756 5754 5753 5752 5751 5749 5748 5746 5745
5720 5723 5726 5730 5734 5737 5740 5743 5745 5747 5749 5751 5752 5753 5755 5756 5756 5758 5757 5757 5757 5756 5756 5756 5755 5755 5754 5753 5752 5751 5750 5749 5748 5747 5745 5744 5742 5741 5740 5738 5737 5735 5734
5711 5714 5718 5721 5725 5728 5731 5733 5735 5737 5739 5741 5742 5743 5745 5746 5746 5747 5748 5747 5747 5746 5746 5745 5744 5743 5743 5742 5741 5740 5739 5738 5736 5735 5734 5733 5731 5730 5728 5727 5725 5723 5721
5703 5706 5709 5712 5716 5719 5721 5723 5725 5727 5728 5731 5732 5733 5734 5734 5735 5735 5736 5737 5736 5735 5734 5733 5732 5732 5731 5730 5729 5728 5727 5726 5724 5723 5722 5721 5719 5718 5716 5714 5713 5711 5709
5695 5697 5700 5703 5706 5709 5712 5714 5715 5716 5718 5720 5722 5722 5722 5723 5723 5723 5723 5724 5724 5724 5722 5721 5720 5719 5718 5717 5716 5715 5714 5713 5712 5710 5709 5708 5706 5705 5703 5701 5700 5698 5697
5686 5689 5691 5694 5697 5699 5702 5704 5705 5707 5708 5709 5711 5711 5711 5712 5711 5711 5711 5711 5711 5711 5710 5708 5706 5705 5704 5703 5702 5701 5700 5699 5698 5697 5695 5694 5692 5691 5690 5688 5686 5685 5683
5678 5681 5683 5686 5688 5690 5692 5694 5695 5696 5697 5698 5699 5700 5700 5700 5699 5699 5698 5697 5697 5697 5696 5695 5693 5691 5690 5689 5688 5687 5686 5685 5684 5682 5681 5680 5678 5677 5676 5675 5673 5671 5670
5670 5672 5674 5676 5678 5681 5682 5683 5685 5686 5686 5687 5687 5688 5688 5687 5687 5686 5684 5683 5682 5682 5682 5681 5679 5677 5675 5674 5673 5672 5671 5670 5669 5667 5666 5665 5664 5663 5662 5661 5659 5657 5656
5661 5663 5665 5667 5669 5670 5672 5673 5674 5675 5675 5676 5676 5676 5676 5675 5674 5673 5671 5669 5667 5665 5665 5667 5664 5662 5660 5659 5658 5657 5656 5655 5653 5652 5651 5650 5649 5648 5647 5646 5645 5643 5642
5653 5654 5656 5658 5659 5660 5661 5662 5663 5663 5663 5664 5664 5663 5663 5661 5660 5658 5656 5655 5653 5651 5650 5651 5649 5648 5645 5644 5643 5641 5640 5639 5638 5637 5636 5635 5634 5634 5633 5631 5630 5628 5627
5644 5645 5646 5647 5649 5649 5650 5650 5651 5651 5651 5651 5651 5650 5649 5647 5646 5644 5642 5640 5639 5637 5635 5635 5635 5633 5631 5629 5628 5626 5625 5624 5622 5622 5621 5620 5619 5618 5617 5616 5615 5613 5612
5634 5635 5636 5637 5638 5638 5638 5639 5639 5639 5638 5638 5637 5636 5635 5633 5632 5630 5628 5626 5624 5622 5620 5619 5619 5617 5616 5614 5613 5612 5610 5609 5607 5606 5606 5605 5604 5603 5602 5601 5599 5598 5596
5624 5625 5626 5626 5627 5627 5627 5627 5626 5626 5626 5625 5624 5623 5621 5619 5617 5615 5613 5611 5609 5607 5605 5603 5603 5602 5601 5600 5598 5597 5596 5595 5593 5592 5591 5590 5589 5588 5586 5585 5584 5582 5580
5614 5615 5615 5615 5615 5615 5615 5615 5614 5614 5613 5612 5611 5609 5607 5605 5603 5601 5599 5597 5595 5593 5591 5589 5588 5587 5587 5586 5585 5583 5582 5581 5580 5578 5577 5575 5574 5573 5571 5569 5567 5566 5564
5604 5604 5604 5604 5604 5604 5603 5603 5602 5601 5600 5599 5597 5595 5593 5591 5589 5587 5585 5583 5581 5579 5577 5575 5574 5573 5573 5572 5571 5569 5568 5567 5567 5566 5562 5561 5559 5558 5556 5554 5553 5551 5549
5594 5594 5593 5593 5593 5592 5591 5590 5589 5587 5586 5585 5583 5581 5579 5577 5575 5573 5571 5569 5568 5566 5564 5562 5561 5561 5560 5559 5557 5556 5554 5553 5552 5551 5548 5547 5545 5543 5541 5540 5538 5536 5534
5583 5582 5582 5581 5580 5580 5579 5577 5576 5574 5573 5572 5569 5567 5565 5564 5561 5560 5558 5557 5555 5554 5552 5550 5549 5548 5547 5545 5544 5542 5541 5540 5539 5537 5534 5532 5531 5529 5528 5526 5524 5522 5520
5571 5571 5570 5569 5569 5568 5566 5564 5563 5562 5560 5559 5557 5554 5552 5550 5549 5547 5546 5545 5543 5542 5540 5538 5537 5535 5534 5532 5531 5529 5528 5526 5525 5524 5520 5518 5517 5516 5515 5513 5511 5509 5507
5560 5559 5558 5558 5557 5555 5554 5552 5550 5549 5548 5546 5544 5542 5540 5538 5536 5534 5533 5532 5531 5530 5528 5526 5525 5523 5522 5520 5518 5517 5515 5513 5512 5511 5508 5506 5505 5503 5503 5502 5499 5497 5495
Wind_Speed
37 37 35 35 34 32 31 31 30 30 29 29 28 28 27 27 26 26 26 26 26 26 26 26 26 26 27 27 28 28 28 29 29 29 29 28 29 29 29 29 29 29 29
38 38 37 36 35 34 33 32 32 31 31 30 29 29 28 28 28 28 28 28 28 29 29 29 29 28 28 29 29 30 30 30 30 30 30 30 30 30 31 31 31 31 30
39 39 38 37 37 36 34 33 33 33 33 32 31 31 30 30 30 30 30 30 30 31 31 30 30 31 30 30 30 30 31 31 31 31 32 32 32 32 33 33 33 33 33
39 39 40 39 38 37 35 35 34 34 34 33 32 32 32 31 31 31 32 32 32 32 32 31 32 32 32 31 31 31 32 32 33 33 33 34 34 34 34 34 35 35 35
39 40 41 40 39 38 37 36 36 36 35 35 34 34 33 33 33 33 33 33 33 33 33 33 33 33 33 33 34 33 33 34 34 34 35 35 36 36 36 36 36 37 38
39 40 40 40 40 39 37 37 38 37 37 36 36 35 35 34 33 34 34 34 34 34 34 34 35 36 36 36 36 36 36 36 36 36 37 37 38 38 38 38 38 39 40
39 40 40 41 41 41 39 38 38 38 38 37 37 37 36 36 35 35 35 36 36 36 36 37 37 38 38 39 39 40 39 39 39 39 39 39 40 40 40 40 40 40 40
39 40 41 41 41 42 41 39 38 39 38 38 38 38 37 37 37 37 37 37 38 38 39 39 39 40 41 41 41 42 42 42 41 40 40 41 41 41 42 42 41 41 41
38 39 40 41 41 41 41 40 39 40 39 39 40 40 39 38 38 38 39 39 40 40 41 41 42 42 43 43 43 43 44 44 44 43 43 43 42 42 43 43 43 43 43
37 38 39 40 40 40 40 40 41 41 40 41 41 41 41 41 40 39 40 41 42 43 44 44 44 45 45 45 46 46 46 46 46 46 45 45 45 45 45 46 46 46 46
37 38 39 40 40 40 39 40 40 41 41 42 42 41 41 41 42 42 42 42 43 44 45 46 46 47 47 47 47 48 48 48 47 47 48 48 47 48 48 48 48 48 47
37 37 39 39 40 41 40 40 40 40 41 43 43 43 44 44 43 44 44 44 45 45 46 47 48 48 49 49 49 49 49 49 49 49 50 50 49 49 49 49 49 48 48
37 38 40 40 41 41 41 41 41 41 42 43 44 45 46 46 45 46 46 46 47 47 48 48 49 50 50 51 50 50 50 51 51 51 51 51 51 50 50 50 50 49 49
37 38 40 41 41 42 42 40 41 42 44 45 45 45 46 47 47 47 48 48 49 49 50 50 51 51 52 52 51 51 51 51 52 52 51 52 52 51 51 51 51 51 51
37 39 40 40 41 42 42 41 41 42 43 45 46 46 47 47 48 49 49 50 51 52 52 51 52 52 53 52 52 52 52 52 53 53 52 52 52 52 52 51 51 52 52
37 39 40 40 41 42 43 42 41 41 43 45 47 47 48 48 49 49 50 51 52 52 52 51 52 52 52 52 53 53 53 53 54 53 53 53 53 53 53 52 52 52 52
37 38 39 40 41 42 42 43 44 44 44 45 47 48 49 49 50 51 52 52 52 53 52 51 51 51 52 53 53 53 53 54 54 54 54 54 53 54 54 54 53 52 52
37 38 39 40 41 41 42 43 44 44 44 45 47 47 48 49 50 51 52 53 53 53 53 52 51 52 52 52 52 53 53 53 54 54 54 54 54 54 54 54 53 53 52
37 38 38 39 40 41 43 44 45 46 46 46 47 47 48 49 50 51 52 52 52 53 53 53 52 52 51 50 50 51 51 51 51 52 52 52 52 53 54 53 53 53 53
37 37 38 40 41 42 44 45 46 46 45 45 46 47 48 49 49 50 51 51 52 52 52 52 51 50 49 48 49 49 49 49 49 50 50 51 52 53 52 52 52 52 52
38 39 40 41 42 42 43 43 45 46 46 46 47 47 48 49 49 50 50 50 51 51 50 50 49 49 48 48 48 49 49 49 49 49 50 51 51 51 51 51 52 52 52
38 39 40 41 41 42 43 44 44 45 46 46 47 47 48 49 49 50 49 49 49 47 47 47 47 47 46 46 47 48 48 48 48 49 49 49 49 50 50 51 51 51 50
38 39 40 41 41 42 43 44 44 45 46 46 47 47 48 49 49 49 48 47 47 46 46 45 45 45 45 45 46 46 46 47 48 47 48 48 49 48 49 50 49 49 48
39 40 40 40 40 41 43 44 44 45 45 46 46 47 47 47 48 47 46 46 46 45 44 44 44 43 44 44 45 45 46 46 47 46 47 47 47 47 47 47 46 46 46
39 39 40 40 40 41 42 43 43 45 45 45 45 45 45 45 44 45 44 44 44 44 43 43 42 42 43 44 45 44 44 44 44 45 46 46 45 45 44 44 44 44 43
39 39 39 40 41 42 42 42 43 43 44 44 43 43 43 43 42 42 42 42 42 41 41 42 42 42 42 43 43 43 43 43 43 43 43 44 43 42 40 40 41 41 41
Wind_Direction
250 250 251 251 249 249 252 253 252 254 256 258 260 263 264 266 266 268 270 272 274 276 277 278 280 281 282 283 284 284 285 285 285 286 285 285 286 286 285 285 285 286 286
249 248 249 249 249 250 251 251 251 253 255 257 260 262 265 266 267 268 270 273 275 276 277 278 278 281 282 282 283 283 284 284 285 285 285 285 285 285 285 285 285 285 286
247 246 247 248 249 250 251 251 252 253 255 257 260 262 265 267 268 269 270 273 275 276 277 278 278 279 281 283 282 282 283 284 284 284 285 285 285 285 285 285 284 284 284
245 245 246 248 250 251 252 252 253 255 256 257 259 262 264 267 268 269 271 273 275 276 277 278 279 280 280 281 282 283 283 283 283 283 284 285 285 285 285 285 284 284 284
246 246 247 248 249 250 251 253 254 255 257 258 259 261 265 267 268 269 271 273 275 276 278 278 279 279 279 279 280 282 283 282 282 282 283 285 285 285 285 286 285 284 284
246 247 247 248 248 247 249 253 256 255 256 257 258 261 264 266 268 270 272 273 274 276 277 278 278 279 279 279 279 279 281 283 283 283 283 283 284 284 285 285 286 286 285
246 247 246 247 246 247 250 253 255 255 255 257 259 261 264 266 268 270 272 273 275 276 277 278 278 278 279 279 279 279 280 282 284 283 283 283 284 284 285 285 286 286 286
246 246 245 245 245 248 250 252 254 254 256 258 260 262 264 266 268 269 271 273 275 275 276 277 278 279 279 279 279 280 280 281 283 284 284 284 284 284 284 284 285 285 286
246 246 246 245 247 249 250 252 254 255 256 258 261 263 265 266 266 268 270 272 274 275 276 277 278 278 279 279 279 279 280 281 282 282 283 283 284 284 284 284 284 285 285
247 248 247 247 246 249 252 253 256 257 258 260 262 265 266 268 269 269 270 272 274 275 276 277 278 278 278 279 279 279 279 280 281 282 282 282 283 283 284 284 284 284 284
247 248 247 246 247 249 252 255 257 258 260 260 263 265 266 269 272 271 272 274 275 276 277 277 278 278 278 278 278 278 278 279 280 281 282 282 282 283 283 284 284 284 284
248 249 248 248 249 251 254 257 258 260 261 261 264 267 268 270 272 273 274 276 276 278 278 277 277 277 277 277 277 278 278 278 278 279 281 281 282 283 283 284 284 284 284
248 249 250 251 252 254 256 257 259 261 262 263 266 267 269 270 273 274 275 276 277 278 278 278 277 277 277 277 277 278 278 278 278 279 280 280 281 282 282 283 283 283 283
249 250 252 254 255 257 258 259 261 263 264 265 267 268 270 271 273 275 276 277 277 277 278 278 277 277 278 278 278 278 278 278 277 278 279 280 280 281 282 282 282 283 283
252 253 255 256 256 258 258 260 263 264 266 267 268 269 271 273 274 276 277 277 278 278 278 279 278 278 278 277 277 277 277 277 277 278 279 279 280 281 281 282 282 283 283
255 257 257 257 258 259 261 262 263 266 268 269 270 271 272 274 276 277 278 278 279 280 280 280 280 279 278 278 277 277 277 277 277 277 277 278 279 280 281 282 282 282 282
258 258 258 259 260 261 262 265 266 268 271 272 272 273 274 276 277 277 278 278 279 279 280 280 280 279 279 279 279 278 278 277 277 276 276 278 278 279 280 281 281 281 282
260 261 261 262 263 265 266 267 269 270 272 274 274 275 276 277 278 278 278 278 279 280 280 280 280 280 279 279 279 279 279 279 278 276 276 278 278 279 280 281 281 281 281
262 264 265 266 266 267 269 270 271 271 273 275 276 276 277 278 278 278 279 279 280 280 281 281 280 280 280 280 279 279 279 280 279 278 278 279 279 280 281 281 281 281 281
265 266 267 268 269 270 271 271 272 272 274 277 278 278 278 278 278 279 279 279 280 280 281 281 280 280 280 280 280 280 280 281 281 280 280 280 280 280 281 281 281 281 281
266 268 269 270 271 272 273 274 275 275 277 278 280 280 278 278 279 279 279 279 280 281 281 280 280 279 279 279 280 282 282 282 282 282 281 282 281 281 280 281 281 281 281
267 269 271 271 271 273 275 276 277 278 279 281 282 281 280 280 279 279 280 280 281 281 280 280 280 279 279 280 281 282 283 283 282 282 283 283 282 281 281 280 281 282 282
270 271 273 272 272 273 275 277 278 280 281 282 282 282 281 281 280 280 280 280 280 280 281 280 280 280 280 282 282 283 283 283 283 283 283 283 282 281 281 281 281 282 282
273 274 274 275 274 275 276 277 278 280 282 283 282 281 282 281 280 279 280 281 280 281 281 280 281 281 282 282 282 283 284 284 284 284 284 284 283 282 282 281 281 282 282
276 275 275 275 276 277 278 278 280 281 282 283 283 282 282 282 280 279 280 281 281 281 280 280 280 281 281 282 283 284 284 285 286 286 286 286 285 283 282 282 281 282 282
276 276 276 276 277 279 279 279 281 281 282 282 282 282 283 282 282 281 280 281 281 280 280 281 281 282 282 283 283 284 285 285 287 287 286 287 286 284 283 282 281 282 282